Tracking 19831 objects as of 23-Aug-2019
HD Live streaming from Space Station
objects crossing your sky now

COSMOS 2251 DEB

Track COSMOS 2251 DEB now!
10-day predictions


NORAD ID: 35061
Int'l Code: 1993-036AHQ
Perigee: 683.7 km
Apogee: 757.8 km
Inclination: 74.1 °
Period: 99.1 minutes
Semi major axis: 7091 km
RCS: 0.009 m2 (small)
Launch date: June 16, 1993
Source: Commonwealth of Independent States (former USSR) (CIS)
Launch site: PLESETSK MISSILE AND SPACE COMPLEX (PKMTR)

Note: This is SATELLITE DEBRIS
aabbcc
Your satellite tracking list
Your tracking list is empty




NASA's NSSDC Master Catalog

Two Line Element Set (TLE):
1 35061U 93036AHQ 19234.77555652 +.00000177 +00000-0 +48545-4 0  9992
2 35061 074.0514 001.3690 0052298 342.5178 017.4181 14.53693948550085
Source of the keplerian elements: AFSPC